Regional Weather Roundup
Issued by NWS State College, PA

Home | Current Version | Previous Version | Graphics & Text | Print | Product List | Glossary Off
Versions: 1 2 3 4 5 6 7 8 9 10 11 12 13 14 15 16 17 18 19 20 21 22 23 24 25 26 27 28 29 30 31 32 33 34 35 36 37 38 39 40 41 42 43 44 45 46 47 48 49 50

750
ASUS41 KCTP 081803
RWRCTP

REGIONAL WEATHER ROUNDUP
NATIONAL WEATHER SERVICE STATE COLLEGE PA
100 PM EST MON FEB 08 2016

Note: "fair" indicates few or no clouds below 12,000 feet with no
significant weather and/or obstructions to visibility.

* = STATION THAT DOES NOT REPORT PRECIPITATION /E.G. RAIN...SNOW...ETC/
    THUNDER OR FOG.

PAZ002>004-007>009-013>016-020>023-029>032-081900-
WESTERN PENNSYLVANIA

CITY           SKY/WX    TMP DP  RH WIND       PRES   REMARKS
ERIE           CLOUDY    47  23  38 S12G20    29.56F
MEADVILLE      CLOUDY    42  25  50 S9G23     29.55F
FRANKLIN*      CLOUDY    41  25  52 SE14G21   29.58F
NEW CASTLE     CLOUDY    41  28  60 S5        29.57F
BEAVER COUNTY  CLOUDY    41  27  56 S10G17    29.56F
BUTLER*        CLOUDY    45  25  45 S12       29.60F
PITTSBURGH INT CLOUDY    43  24  47 S12       29.56F
PITTSBURGH     CLOUDY    48  25  40 S13       29.56F
INDIANA*       PTSUNNY   43  23  45 SE12      29.62F
LATROBE        MOSUNNY   45  23  42 SE17      29.60F
WASHINGTON CO* CLOUDY    43  27  52 S8        29.57F
$$

PAZ004>006-010>012-017>019-024>028-033>037-041-042-045-046-049>053-081900-
CENTRAL PENNSYLVANIA

CITY           SKY/WX    TMP DP  RH WIND       PRES   REMARKS
BRADFORD       CLOUDY    38  21  50 S10       29.58F
DUBOIS         MOSUNNY   41  22  46 SE9G17    29.58F
CLEARFIELD     CLOUDY    41  19  41 SE10      29.62F
JOHNSTOWN      CLOUDY    38  18  44 SE10G20   29.58F
ALTOONA        CLOUDY    40  18  41 S12       29.64F
STATE COLLEGE  PTSUNNY   39  21  48 SE5       29.65F
WILLIAMSPORT   CLOUDY    39  23  52 S5        29.70F
SELINSGROVE    MOSUNNY   43  26  51 N3        29.71F
FT INDIANTOWN  PTSUNNY   41  27  56 E7        29.70F
CAPITAL CITY   MOSUNNY   41  25  53 E9        29.70F
HARRISBURG     PTSUNNY   40  27  59 SE7       29.70F
YORK             N/A     43  28  55 NE7       29.69F
$$

PAZ038>040-043-044-047-048-054-055-060>062-067>071-081900-
EASTERN PENNSYLVANIA

CITY           SKY/WX    TMP DP  RH WIND       PRES   REMARKS
SCRANTON       CLOUDY    38  22  52 E8        29.68F
MOUNT POCONO   CLOUDY    35  21  56 E9        29.64F
ALLENTOWN      CLOUDY    42  25  50 E10       29.71F
QUAKERTOWN*    CLOUDY    39  27  60 NE3       29.71F
READING        CLOUDY    40  25  55 NE8       29.70F
LANCASTER      CLOUDY    40  28  62 E7        29.71F
COATESVILLE    CLOUDY    39  28  65 NE5G13    29.72F
POTTSTOWN      CLOUDY    39  26  59 N6        29.72F
BLUE BELL        N/A     37  28  70 CALM      29.72F
DOYLESTOWN     CLOUDY    39  25  57 VRB3      29.70F
WILLOW GROVE   NOT AVBL
NORTH PHILA    CLOUDY    42  28  57 NE12      29.73F
PHILADELPHIA   CLOUDY    42  26  53 NE14      29.72F
$$




USA.gov is the U.S. government's official web portal to all federal, state and local government web resources and services.